This is the latest recevied weather packets stored in our database for station/object W0AKY-13. If no packets are shown the sender has not sent any weather packets the latest 10 day(s).
| Time | Temp. | Humidity | Pressure | Rain* | Wind** | Luminosity | Snow |
|---|---|---|---|---|---|---|---|
| 1777890282 | 9.44° C | 83% | 1004.1 hPa | 0 mm | - | 0 W/m² | - |
| 1777889978 | 9.44° C | 82% | 1004 hPa | 0 mm | - | 0 W/m² | - |
| 1777889676 | 9.44° C | 85% | 1004.1 hPa | 0 mm | - | 0 W/m² | - |
| 1777889373 | 8.89° C | 86% | 1004.1 hPa | 0 mm | - | 0 W/m² | - |
| 1777889071 | 8.89° C | 86% | 1004 hPa | 0 mm | - | 0 W/m² | - |
| 1777888768 | 8.89° C | 85% | 1004.1 hPa | 0 mm | - | 0 W/m² | - |
| 1777888464 | 9.44° C | 85% | 1004.1 hPa | 0 mm | - | 0 W/m² | - |
| 1777888160 | 9.44° C | 84% | 1004.3 hPa | 0 mm | - | 0 W/m² | - |
| 1777887858 | 9.44° C | 84% | 1004.2 hPa | 0 mm | - | 0 W/m² | - |
| 1777887555 | 9.44° C | 84% | 1004.4 hPa | 0 mm | - | 0 W/m² | - |
| 1777887250 | 9.44° C | 83% | 1004.4 hPa | 0 mm | - | 0 W/m² | - |
| 1777886946 | 9.44° C | 84% | 1004.7 hPa | 0 mm | - | 0 W/m² | - |
| 1777886642 | 9.44° C | 85% | 1004.5 hPa | 0 mm | - | 0 W/m² | - |
| 1777886340 | 9.44° C | 88% | 1004.9 hPa | 0 mm | - | 0 W/m² | - |
| 1777886037 | 9.44° C | 88% | 1004.6 hPa | 0 mm | - | 0 W/m² | - |
| 1777885736 | 9.44° C | 88% | 1004.5 hPa | 0 mm | - | 0 W/m² | - |
| 1777885433 | 9.44° C | 87% | 1004.7 hPa | 0 mm | - | 0 W/m² | - |
| 1777885132 | 9.44° C | 85% | 1005.1 hPa | 0 mm | - | 0 W/m² | - |
| 1777884828 | 9.44° C | 85% | 1005.1 hPa | 0 mm | - | 0 W/m² | - |
| 1777884524 | 9.44° C | 87% | 1005.3 hPa | 0 mm | - | 0 W/m² | - |
| 1777884221 | 9.44° C | 88% | 1005.2 hPa | 0 mm | - | 0 W/m² | - |
| 1777883917 | 9.44° C | 88% | 1005.4 hPa | 0 mm | - | 0 W/m² | - |
| 1777883614 | 9.44° C | 87% | 1005.3 hPa | 0 mm | - | 0 W/m² | - |
| 1777883310 | 9.44° C | 87% | 1005.2 hPa | 0 mm | - | 0 W/m² | - |
| 1777883007 | 9.44° C | 87% | 1005.4 hPa | 0 mm | - | 0 W/m² | - |
* Rain latest hour (hover to see other rain measurements)
** Current wind speed in m/s (hover to see current wind gust speed)